www.pogodaiklimat.ru

Погода и климат >> Архив погоды >> Аргентина >> Мендоса


ПОГОДА в Мендосе

  • Прогноз погоды в Мендосе
  • Монитор погоды в Мендосе

АРХИВ ПОГОДЫ в Мендосе

Время (UTC), дата Ветер
(напр.,м/с)
 
Видим.   Явления Облачность Т
(С)
Тd
(С)
f
(%)
Тe
(С)
Тes
(С)
Комфортность P
(гПа)
Po
(гПа)
Тmin
(С)
Tmax
(С)
R
(мм)
R24
(мм)
S
(см)
09 13.06 ЮЗ 1 15 км 1/0
[Cs]
+2.5 +1.5 93 +1 +1 1011.7 929.7
12 13.06 В 1 6000 м дымка 8/1 1500 м
[Sc Ac As Cs]
+1.4 +0.4 93 -1 -1 1015.1 931.8 +1.4 +9.2
15 13.06 Ю 4 15 км 4/1 1350 м
[Sc Ac As]
+13.4 +3.0 49 +12 +14 1014.6 932.5
18 13.06 Ю 5 15 км 3/1 1500 м
[Frnb Ac cuf]
+16.8 +1.0 34 +16 +19 1012.4 930.8
21 13.06 ЮВ 4 15 км 3/3 1500 м
[Sc]
+15.0 +1.2 39 +14 +14 1014.4 932.2
00 14.06 ЮЗ 2 15 км ясно +11.1 +2.3 55 +10 +10 1018.5 935.3 +1.4 +18.0
03 14.06 Ю 2 15 км ясно +7.2 +1.5 67 +6 +6 1019.7 937.4
06 14.06 ЮЗ 2 15 км 3/3 1500 м
[Sc]
+7.1 +3.7 79 +5 +5 1019.4 937.7
09 14.06 ЮЗ 2 15 км 3/3 1500 м
[Sc]
+5.4 +1.8 78 +4 +4 1018.8 936.6
12 14.06 ЮЗ 2 15 км ясно +6.2 -2.3 54 +5 +5 1019.8 937.2 +4.0 +11.4
15 14.06 В 5 15 км 1/1 1500 м
[Cu Sc]
+12.2 -5.2 29 +11 +13 1019.4 937.0
18 14.06 ЮВ 5 15 км 1/1 1200 м
[Cu Sc]
+13.0 -2.9 33 +11 +14 1016.8 934.8
21 14.06 В 4 15 км 4/4 1200 м
[Sc]
+10.1 -1.2 45 +8 +8 1017.8 935.0
00 15.06 ЮЗ 3 15 км 3/3 1200 м
[Sc]
+8.0 +0.2 58 +6 +6 1020.8 937.6 +5.9 +13.3
03 15.06 ЮЗ 4 15 км 8/8 900 м
[Frnb]
+8.5 -0.7 52 +6 +6 1021.0 938.6
06 15.06 Ю 5 15 км 8/6 900 м
[Frnb Ac As]
+8.8 -1.2 49 +6 +6 1020.9 938.8
09 15.06 Ю 6 15 км 9/8 900 м
[Frnb Ac As]
+8.0 -2.0 49 +5 +5 1022.4 939.7
12 15.06 Ю 8 10 км дождь 10/10 750 м
[Frnb]
+5.4 +1.5 76 -0 -0 1026.4 942.6 +5.2 +9.2 0.0
15 15.06 Ю 7 15 км {дождь} 9/8 1050 м
[Sc Ac As]
+7.4 0.0 59 +3 +3 1027.7 944.2
18 15.06 Ю 7 15 км {дождь, морось} 9/8 900 м
[Sc Ac As]
+8.8 -0.5 52 +5 +5 1025.6 942.5 0.0
21 15.06 Ю 6 15 км 10/9 900 м
[Sc Ac As]
+6.8 -0.2 61 +3 +3 1027.2 943.6
00 16.06 Ю 5 15 км 9/5 900 м
[St Ac As Cs]
+5.6 -0.2 66 +1 +1 1030.1 945.7 +4.8 +9.2
03 16.06 ЮЗ 3 15 км 10/10 750 м
[St]
+4.4 +1.5 81 +1 +1 1031.0 946.6
06 16.06 Ю 2 15 км 10/8 750 м
[St Ac As]
+4.0 +1.0 81 +1 +1 1030.0 945.8
09 16.06 СЗ 1 15 км 10/10 750 м
[St]
+4.3 +0.2 75 +3 +3 1029.0 944.6
12 16.06 В 1 15 км 5/5 1200 м
[St]
+1.2 +0.1 92 -1 -1 1030.3 945.3 +1.2 +5.6 0.0
15 16.06 ЮЗ 1 15 км 8/8 1200 м
[Sc]
+7.2 -1.5 54 +7 +8 1029.6 945.4
18 16.06 ЮВ 2 15 км 5/5 1350 м
[Sc]
+9.2 -0.6 50 +8 +11 1026.0 942.2
21 16.06 В 3 15 км 5/5 1350 м
[Sc]
+8.0 +0.2 58 +6 +6 1025.1 941.3
00 17.06 штиль 0 15 км 9/8 900 м
[Frnb Ac As]
+6.8 +2.1 72 +6 +6 1027.7 943.0 +0.7 +11.3
03 17.06 штиль 0 15 км 9/8 900 м
[Frnb Ac As]
+6.0 +2.5 78 +5 +5 1026.6 942.8
06 17.06 штиль 0 15 км 10/8 1200 м
[Sc Ac As]
+3.0 +1.2 88 +2 +2 1024.2 940.5
09 17.06 штиль 0 15 км 10/6 1200 м
[Sc Ac As]
+4.5 +1.6 81 +4 +4 1022.3 938.8
12 17.06 штиль 0 10 км дымка 6/4 750 м
[Sc Ac As Ci sp]
+1.9 +1.1 94 +1 +1 1022.5 938.4 +1.0 +7.0
15 17.06 С 2 15 км 6/3 1050 м
[Sc Ac As Ci sp]
+8.2 +1.3 62 +7 +10 1020.9 937.7
18 17.06 З 2 15 км 8/3 1050 м
[Sc Ac As Cs]
+9.9 +0.4 52 +9 +12 1017.1 934.1
21 17.06 СЗ 3 15 км 5/0
[Ac As Cs]
+9.6 -2.0 44 +8 +8 1016.5 933.7
00 18.06 СЗ 2 15 км 5/0
[Ac As Cs]
+5.6 -1.8 59 +4 +4 1018.4 934.5 +1.7 +10.7
03 18.06 ЮЗ 2 15 км 8/0
[Ac As Cs]
+4.3 -1.2 67 +2 +2 1019.0 935.8
06 18.06 ЮЗ 2 15 км 3/0
[Ac As Cs]
+2.7 -1.0 77 0 0 1019.0 935.8
09 18.06 штиль 0 15 км ясно +1.0 -3.4 72 0 0 1018.9 935.4
12 18.06 Ю 2 15 км ясно 0.0 -3.6 77 -3 -3 1020.0 935.7 -1.2 +5.6
15 18.06 ЮВ 1 15 км ясно +10.0 -2.8 41 +10 +16 1018.2 935.3
18 18.06 СВ 2 15 км ясно +14.4 -6.0 24 +14 +20 1016.3 933.8
21 18.06 СЗ 2 15 км ясно +14.6 -6.6 22 +15 +15 1018.6 935.8
00 19.06 С 1 15 км ясно +7.4 -5.6 39 +7 +7 1019.6 935.7 0.0 +15.8
03 19.06 Ю 2 15 км ясно +6.2 -2.9 52 +4 +4 1021.5 938.6
06 19.06 Ю 2 15 км ясно +2.4 -4.7 59 0 0 1021.2 938.4
09 19.06 ЮЗ 2 15 км ясно +3.2 -5.9 51 +1 +1 1020.7 938.1
12 19.06 Ю 1 15 км 1/0
[Cs]
+1.4 -8.6 47 0 0 1022.7 938.6 -1.4 +7.4
15 19.06 С 3 15 км 4/0
[Ac As Cs]
+14.0 -9.1 19 +14 +17 1021.7 939.3
18 19.06 В 3 15 км 5/0
[Ac As Cs]
+16.6 -7.8 18 +17 +20 1019.9 937.4
21 19.06 СВ 2 15 км 5/0
[Ac As Cs]
+17.0 -6.8 19 +17 +17 1019.5 937.3
00 20.06 штиль 0 15 км ясно +9.1 -1.7 47 +9 +9 1022.2 938.4 +1.4 +18.2
03 20.06 штиль 0 15 км 3/0
[Ac As]
+6.0 -2.9 53 +6 +6 1020.8 938.5

 

Местоположение метеостанции Мендоса (Аргентина): широта -32.83 долгота -68.78 высота над уровнем моря 704 м.

В архиве по умолчанию представлена погода в Мендосе за последнюю неделю. Архивные данные за месяц целиком и за предыдущие месяцы, начиная с января 2011 года, Вы можете получить, выбрав интересующий диапазон дат из раскрывающегося списка и нажав кнопку "Ввод!".


*Определитесь, кто Вы:
робот инопланетянин человек

Внимание! Время в таблицах - всемирное. Для получения местного времени необходимо прибавить поправку, которая равна -3 ч.

Смотрите также архив погоды в соседних городах и на ближайших метеорологических станциях:

Погода в Сан-Мартине (Аргентина) (44 км)
Погода на Пасо Лос Либертадорес (Чили) (125 км)
Погода в Сан-Хуане (Аргентина) (163 км)
Погода в Сан-Хосе-де-Майпо (Чили) (170 км)
Погода в Сантьяго Агуас Андинас (Чили) (183 км)
Погода в Ло-Пинто (Чили) (188 км)
Погода в Сантьяго (Чили) (189 км)
Погода в Пудауэле (Чили) (196 км)
Погода в Сан-Рафаэле (Аргентина) (198 км)
Погода в Льяй Льяй (Чили) (199 км)

Пояснения к столбцам:

Ветер - указаны скорость ветра в м/с - средняя за 10 мин, порывы в срок и между сроками (в фигурных скобках) и направление, откуда дует ветер: С - северный, СВ - северо-восточный, В - восточный, ЮВ - юго-восточный, Ю - южный, ЮЗ - юго-западный, З - западный, СЗ - северо-западный.
Видимость - горизонтальная дальность видимости в метрах или километрах. При видимости от 1 до 10 км при отсутствии осадков обычно наблюдается дымка, при ухудшении видимости до 1 км и менее - туман. В сухую погоду видимость может ухудшаться дымом, пылью или мглою.
Явления - указаны атмосферные явления, наблюдавшиеся в срок или в последний час перед сроком; фигурными скобками обозначены явления, наблюдавшиеся между сроками (за 1-3 часа до срока); квадратными скобками обозначены град или гололедные отложения с указанием их диаметра в мм.
Облачность - указаны через наклонную черту общая и нижняя облачность в баллах и высота нижней границы облаков в метрах; квадратными скобками обозначены формы облаков: Ci - перистые, Cs - перисто-слоистые, Cc - перисто-кучевые, Ac - высококучевые, As - высокослоистые, Sc - слоисто-кучевые, Ns - слоисто-дождевые, Cu - кучевые, Cb - кучево-дождевые. Подробнее классификацию облаков см. в Атласе облаков (PDF).
T - Температура воздуха - температура, измеренная на высоте 2 м над землей.
Td - Температура точки росы - температура, при понижении до которой содержащийся в воздухе водяной пар достигнет насыщения.
f - Относительная влажность воздуха - влажноcть воздуха, измеренная на высоте 2 м над землей.
Te - Эффективная температура - температура, которую ощущает одетый по сезону человек в тени. Характеристика душности погоды. При расчете учитывается влияние влажности воздуха и скорости ветра на теплоощущения человека.
Tes - Эффективная температура на солнце - температура, которую ощущает человек, с поправкой на солнечный нагрев. Характеристика знойности погоды. Зависит от высоты солнца над горизонтом, облачности и скорости ветра. Ночью, в пасмурную погоду, а также при ветре 12 м/с и более поправка равна нулю.
P - Атмосферное давление - приведенное к уровню моря атмосферное давление.
Po - Атмосферное давление - измеренное на уровне метеостанции атмосферное давление.
Tmin - Минимальная температура - минимум температуры воздуха на высоте 2 м над землей.
Tmax - Максимальная температура - максимум температуры воздуха на высоте 2 м над землей.
R - Количество осадков - Количество выпавших осадков за период времени, мм. При наведении курсора мыши на число - период времени, за который выпало указанное количество осадков.
R24 - Количество осадков - Количество выпавших осадков за 24 часа, мм.
S - Снежный покров - Высота снежного покрова, см. При наведении курсора мыши на число - состояние снежного покрова и степень покрытия местности в баллах.